CORRIDA & CAMINHADA DA SAÚDE – UNESP ARAÇATUBA

unesp-aracatuba

Data:
20/11/2016


Geral Feminino 6Km

Cl.Num.NomeId.FaixaCl.Fx.Sx.EquipeTempoLiquido
1298VALDENICE DE FARIA BINI38F3039-FACADEMIA CORPO TOTAL E SUPERANDO.00:27:3400:27:32
2294THAIS NUNES28F1629-FTAURUS RUN00:29:4500:29:45
3284SELMA FRANCISCO DA SILVA33F3039-FACADEMIA CORPO TOTTAL00:30:2100:30:18
461SANDRA CRISTINA MOROTTI40F4049-FKM RUNNER00:30:3300:30:32
5133EDNA CASSIA BARBOSA DE ALMEIDA42F4049-FKM RUNNER00:31:1000:31:05
667THAIS GENESINI22F1629-F00:31:1100:31:05
7104CAMILLA BERNINI27F16291FKM RUNNER00:31:2700:31:27
8258PAULA MENEZES31F30391FKM RUNNER00:31:5800:31:54
9119CLICERIA BERTELLI DOS SANTOS46F40491FKM RUNNER00:32:1100:32:11
10152GABRIELA NOGUEIRA26F16292F00:32:2000:32:13
117ANA LAURA ESTEVES DOS SANTOS31F3039-FLOJA ALGAZARRA MODA INFANTIL00:32:2300:32:17
12193KATIA TELES DE FREITAS33F30392F00:32:2600:32:23
13234MARIA PAULA 38F30393FLIFE ATIVIDADES FISICAS00:32:3000:32:10
14122CRISTIANE NOMEROWSKY COTTARELLI46F40492FCORRE BIRIGUI00:32:3800:32:19
15102CAMILA DE CASSIA DA SILVA28F16293F00:32:5500:32:53
1647PAULA MARIANA SPINA RODRIGUES32F30394F00:33:0500:32:59
17291TAMIRES DOS SANTOS GALV?O 25F16294F00:33:0900:33:07
18198LARICIA ROBERTA RODRIGUES PEREIRA34F30395F00:33:1700:33:14
19194KELLI CRISTINA CARDOZO DE OLIVEIRA DEUSDETE31F30396FDEUS SEJA LOUVADO 00:33:3800:33:37
20140?RICA L. FAGUNDES TOLEDO TAKAHASHI38F30397FKM RUNNER / O200:33:4000:33:40
218ANA MARIA BARRETTO MARTINS59F50991FACADEMIA CORPO TOTAL00:33:4100:33:31
22280SABRINA VIANNI FERREIRA38F30398F00:33:4400:33:35
23235MARI? ROSA48F40493F00:33:4900:33:49
2449PERLA FERNANDES BREDA40F40494FSUPERANDO00:33:5000:33:39
2593APARECIDA ANTIGO RIMONATTO SANTOS51F50992FKM RUNNER00:34:0200:33:53
2651RACHEL DE ALBUQUERQUE MARANH?O MULINARIO37F30399FRUNNER PR? SA?DE00:34:0500:33:59
27109C?SSIA LEMOS VILELA37F303910FSUPERANDO ASSESSORIA ESPORTIVA00:34:2000:34:16
28145FLAVIA C. DELBEM33F303911FRICOBONI SYSTEM RUNNER00:34:2600:33:58
2991ANY CAROLINE CAPEL SANCHEZ37F303912FCORREBIRIGUI 00:34:3500:34:16
3092ANY ELISE CAPEL35F303913FLIFE 00:34:3600:34:18
3144MILVA APARECIDA DE SOUSA DIAS49F40495F00:34:3800:34:27
32253NILVA CORREIA GARDENAL52F50993FSUPERANDO00:35:0400:34:53
33115C?NTIA LUMIKO HAMAMOTO KANZAWA45F40496FAMIGOS DE CORRIDA00:35:3600:35:23
34157GRASIELE ANDRESSA DA SILVA RIBEIRO27F16295F00:35:5600:35:46
35113CIBELE GRANDE DI SANTI PINHEIRO46F40497F00:36:0600:35:48
36110CELANE DIAS DE FARIA40F40498FGRUPORICOBONISYSTEMRUNNER00:36:0700:35:40
37171IRIA MELO40F40499FKM RUNNER00:36:1900:36:04
38244MICHELE FRANCINE DE TOLEDO CARVALHO39F303914FKM RUNNER00:36:3100:36:22
3971THAISA MARQUES MORAES SETTANI OLIVEIRA31F303915F00:36:3200:36:28
4073ALESSANDRA APARECIDA DE BRITO SCHWETER37F303916F00:36:4200:36:35
4116CLAUCIA ROSANA CARBONEZI FERREIRA37F303917FCRUPO BOA FORMA00:36:4600:36:35
42148FRANCIANE PAVANI DE SOUZA40F404910F00:36:5400:36:43
43246MILENA XAVIER DE OLIVEIRA39F303918F00:36:5500:36:22
44256PATRICIA FERRAZ MUSA CINTRA37F303919F00:36:5500:36:22
45125DANIELLE MIGUEL DE QUEIROZ CARAVANTI32F303920F00:37:0600:36:59
4641MAURA TIEMI TSUTSUMI44F404911F00:37:2000:37:01
47189J?LIA PAULA NUNES DOS SANTOS 35F303921F00:37:3400:37:17
4813B?RBARA PIGNATARO FUMES28F16296FCORPORE00:37:3600:37:01
4966TATIANA NUNES BARRETO30F3039-F00:37:3900:37:25
5056RENATA VILELA DE TOLEDO36F303922F00:37:4400:37:18
51279ROSANA RODRIGUES FLORINDO29F16297F00:37:4800:37:22
5221D?BORA PIGNATARO FUMES28F16298FCORPORE00:37:5700:37:57
53323ADELINA RODRIGUES PANDELOT23F16299F00:37:5900:37:24
5439MARIANA DA CRUZ MENEZES 25F1629-F00:38:1100:37:56
55223M?RCIA CRISTINA PINHATA46F404912FSUPERANDO00:38:1800:38:08
5697BRUNA NOGUEIRA SILVA33F303923FTALENTO00:39:0200:38:35
576ANA CLAUDIA VASCONCELOS46F404913F00:39:0700:38:41
58245MILENA ARAUJO TONON CORREA32F303924FKM RUNNER00:39:1300:38:59
5952RACHEL DE ROSSI FERNANDES 33F303925F00:39:4400:39:39
6029JANA?NA ZAVITOSKI DA SILVA35F3039-FKM RUNNER00:39:4600:39:06
61103CAMILA DOS SANTOS GOMES25F162910FTAURUS ACADEMIA 00:39:5400:39:46
62105CARLA KARINA ABRANTES44F404914F00:39:5800:39:27
63257PATRICIA FERRI DA SILVA32F303926F00:40:0000:39:30
64311ZULMIRA ROSALINA FELIPE59F50994F -AAPEN ASSOCIA??O DE ATLETISMO DE PENAPOLENSE00:40:0400:39:55
65141FABIANA MIRANDA TORRES36F303927FRICOBONY SYSTEM RUNNER00:40:0500:39:37
66139ELLEN ROCHA34F303928F00:40:1600:40:12
6723FABIOLA MARGARETE DE SOUZA SILVA29F162911FKM RUNNER 00:40:1900:39:57
6860ROSA MARIA SIQUEIRA 38F303929F00:40:2000:39:59
6972ADRIANA LOPES CAVALCANTI GARCIA49F404915F00:40:2800:40:01
70138ELIS FERNANDES A DE OLIVEIRA49F404916FKM RUNNER 00:40:3500:40:26
71316FERNANDA PESSOA 33F303930F00:40:5800:40:40
7243MICHELI CRISTINA CAL?A31F303931FRICOBONI SYSTEM RUNNER00:41:0800:40:39
73320LAURA GUIMARAES FONSECA FERRARI35F303932F00:41:0800:40:43
74307VIVIANE GAMA CHAGAS35F303933F00:41:1300:40:33
7533KARINA HELGA TURCIO DE CARVALHO39F303934F00:41:1600:41:05
76180JESSICA FIRMINO DA SILVA25F162912F00:41:1700:41:09
77303VERA L?CIA SATURNINO DE SOUZA59F50995F00:41:1700:41:10
78252NAYANE TORIBIO MIGUEL 26F162913F00:41:2000:41:00
79302VANI OLIVEIRA DA SILVA59F50996FCAMARGO RUNNERS00:41:2800:41:09
80222MARCIA CRISTINA BRAZ DOS SANTOS47F404917F00:41:3000:41:09
81314TERESINHA CRISTINA CANDIDO 43F404918F00:41:3000:40:48
82263RENATA BORGES FAGUNDES REZEK44F404919FSUPERANDO00:41:3100:41:17
83203LIEMI KOMATSU28F162914FKM RUNNER00:41:3500:41:18
8474ALESSANDRA CRISTINA BARBOSA VILLELA 44F404920FN00:41:4200:41:21
85128DENISE YUKARI TOGUTI34F303935F00:41:4900:41:21
86293TARITA MALTA DOS SANTOS30F303936F00:42:0400:41:49
8762SANDRA HELENA PENHA DE OLIVEIRA53F50997FUNESP00:42:1200:42:01
88315LUCIRLEI APARECIDA NUNES50F50998F00:42:1400:41:57
89292T?NIA CRISTINA MININI SOARES52F50999FCAMARGO RUNNER E DS INFORMATICA00:42:3100:42:08
90137ELIANA CRISTINA DA SILVA RODRIGUES TANTIN38F303937FKMRUNNER00:42:5300:42:49
91173ISADORA BERALDO ANTONELLO26F162915F00:42:5700:42:26
92318MARIA PEREIRA MALAFAIA57F509910F00:43:0500:42:49
9312ANNY KELLEN OSSUNE29F162916FKM RUNNER00:43:1600:42:37
94149FRANCIELE TREVISAN DE SOUZA MARQUES33F303938FAMIGOS DE CORRIDA00:43:1800:42:58
95233MARIA L?CIA JUNQUEIRA FRANCO XAVIER64F509911F00:43:2800:43:12
961ADALGIZA LIMA SANTOS ALVES38F303939FCAMARGO RUNNERS00:43:3700:43:15
97259PAULA CRISTINA DE MELLO BARROS24F162917F00:43:4000:43:17
98124DANIELE SUART HARA32F303940FCAMARGO RUNNERS00:43:4100:43:18
999ANA TERESA MALULY PRONI37F303941F00:43:4300:43:06
100312TRICIA TOZZI DE OLIVEIRA44F404921F00:43:4500:43:30
10165TAIS W MATSUMOTO43F404922F00:43:4700:43:25
10211ANNE CRISTINA DE FARIA COCATO32F303942F00:43:4900:43:09
103236MARIANA PUGGINA GAIA DE ARAUJO 27F162918FKM RUNNER00:44:1800:44:15
104192KATHARINA GATTIS37F303943F00:44:1900:44:16
105225MARCIA ELAINE GON GADOTTI56F509912F00:44:3000:44:30
106317PATRICIA S. BARBOSA39F303944F00:44:5100:44:35
10757ROBERTA ARRUDA GAVIOLI PEREIRA35F303945F00:45:0900:44:47
10883ANA GLAUCIA GUIATTI42F404923FCAMARGO RUNNERS00:45:2300:45:11
10994APARECIDA FATIMA DA MATTA56F509913F00:45:2600:44:57
11045NANCY DOS SANTOS PINTO FERREIRA49F404924F00:45:2800:45:02
111108CAROLINA PRADO LANDIN20F162919FKM RUNNER00:45:3600:45:12
112219MA?RA MACHADO BICHIR30F303946F00:45:5400:45:30
11328JAMILE MELO DE OLIVIERA29F162920FRUNNERS00:46:2500:46:18
114247M?RIAM TAKIY26F162921FKM RUNNER00:46:2700:46:03
115238MARLENE MELO55F509914FKM RUNNER00:46:3700:46:35
116301VANESSA IMAI CORNASSINI35F303947FKMRUNNER00:46:3800:46:33
117176JANE ALENCASTRO26F162922F00:47:1100:46:47
118254NUBIA PERES DA SILVA BIM19F162923F00:47:4600:47:39
119197LAILA DORNELLAS DE OLIVEIRA27F162924FKM RUNNER00:48:1900:48:04
120290TA?S DA SILVA RODRIGUES22F162925FKMRUNNER00:48:3100:48:21
121287SILVIA CRISTINA DE SOUZA46F404925F00:48:4400:48:18
122190JULIANA TEIXEIRA DONAIRE39F303948F00:49:0500:48:28
123304VERA L?CIA TEIXEIRA MARTINEZ64F509915F00:49:0600:48:29
1245ANA CL?UDIA OKAMOTO46F404926FFOA00:51:3700:51:03
125196KELLY CRISTINA DE OLIVEIRA28F162926F00:51:5400:51:39
12668YASMIN ISIS BORGES VILLAR 25F162927F00:51:5900:51:23
12764SUZY ELAINE NOBRE DE FREITAS53F509916FKM RUNNER00:52:0600:51:27
128208LUCIA HELENA FERREIRA TAKIY47F404927FKM RUNNER00:55:4200:55:18
129306VIVIANE CERVANTES LIMA30F303949F00:57:4900:57:34
130255PAOLA DE MELO SANTOS26F162928F00:57:5000:57:36

Geral Masculino 6Km


Cl.Num.NomeId.FaixaCl.Fx.Sx.EquipeTempoLiquido
1299VALMIR EDMILSON DOS SANTOS49M4049-MSOL NASCENTE 00:22:5200:22:52
2325JULIO CEZAR DOS SANTOS JUNIOR25M1629-M00:22:5300:22:50
398BRUNO ELIAS25M1629-MKM RUNNER00:23:0100:23:00
481AMAURI VIEIRA DE ANDRADE43M4049-MKM RUNNER, MAIA BRINDES00:23:3700:23:37
588ANDR? LUIZ SECCO FRANCO29M1629-MSUPERANDO ASSESSORIA ESPORTIVA00:23:4500:23:43
6118CLEBER MARQUES CANDIDO37M30391MKM RUNNER00:24:0500:24:03
7243MICHEL DA SILVA DEUSDETE29M16291MKM RUNNER 00:24:5100:24:51
8142FABIO SPESSOTO DE ARAUJO29M16292MKM RUNNER00:25:3400:25:32
9260PEDRO HENRIQUE VIGNOTO DOS SANTOS18M16293M00:25:4600:25:46
10169HUDSON INACIO DE SOUZA31M30392MBORA CORRER00:25:5400:25:47
1169ADEMIR HENRIQUE DOS SANTOS48M40491MSOL NASCENTE 00:26:1400:26:14
12265REONALDO DE OLIVEIRA ALMEIDA39M30393MAMIGOS DA CORRIDA00:26:1400:26:12
1338MARCELO MARQUES DE PAULA35M30394MRUNNERS ADAMANTINA00:26:2000:26:14
14174IVANILDO BARROS31M30395MNANY BARROS CAL?ADOS 00:26:2800:26:27
15144FELIPE CRESC?NCIO DOS SANTOS17M16294MKMRUNNER00:26:3700:26:32
16248MOACYR JOS? DA SILVA47M40492MEQUIPE F300:26:4200:26:41
1790ANTONIO FERREIRA DE SOUZA47M40493MKM RUNNER00:26:4700:26:44
18186JOSE ROPDRIGO FERNANDES37M30396M00:27:0300:26:56
19185JOS? PEREIRA DE SOUSA56M50991MSOL NASCENTE GUARA?A?00:27:0700:27:05
20300VANDERLEI MARTINS DE ARAUJO41M40494MESCORREGA LA VAI 1!00:27:0900:27:06
21135EGIDIO TEODORO D ARAUJO60M50992MSUPERMERCADO ECON?MICO00:27:3300:27:30
2270ADILSON PEREIRA PAES52M50993M00:27:4300:27:37
23297VALDEMIR M.R DOS SANTOS47M40495MATATOLDOS E FANEONTODOSPLACAS EQUIPE P?00:27:4800:27:39
24272ROBERTO CHIARELO46M40496MKM RUNNNER00:28:1000:28:08
254ALLAN OLIVEIRA DA SILVA20M1629-MKM RUNNER00:28:1600:28:14
2686ANDERSON LUCAS RODRIGUES FELIX23M16295MNAO00:28:3700:28:29
27156GLEIDSON CHESSA CARVANTI33M30397M00:28:5100:28:45
2831JO?O RAFAEL AMADEU27M1629-M00:29:0900:29:03
29324ERICK PERILLO ROCHA26M16296M00:29:1400:29:10
3063SERGIO MARQUES PEREIRA29M16297MRUNNERS 00:29:2000:29:13
31179JESSE LOPES54M50994M00:29:2300:29:18
32116CLAUDINO ZORZETO JUNIOR46M40497MHERBALIFE00:29:2500:29:13
332ALDI?RIS ALVES PESQUEIRA34M3039-M00:29:2700:29:17
34270RICHARD BERNARDO DE OLIVEIRA33M30398M00:29:4400:29:41
3555RENAN DAL FABBRO24M1629-M00:29:4600:29:43
3646N?BIO SAITO41M4049-M00:29:4800:29:40
37205LORIVAL RODRIGUES PINTO39M30399MKM RUNNER00:30:0300:30:00
38275ROBERTO RYUTARO GATTIS43M40498M00:30:0300:29:50
39200LEONARDO HELLIAM DE SOUZA FERREIRA17M16298M00:30:0700:29:55
40231MARCOS JOS? RODRIGUES55M50995MKM RUNNER 00:30:1000:30:01
41201LEONARDO MAR?ES DEL MARCHI26M16299M00:30:1400:29:53
42286SERGIO LUIZ TONSIG54M50996M00:30:1500:30:12
43228MARCO ANTONIO RUIZ LOPES39M303910MKM RUNNER00:30:1600:30:10
4442MAXIMILIANO SALES SPESSOTTO33M303911M00:30:2300:30:20
45114CIN?ZIO CRESC?NCIO49M40499M00:30:2900:30:24
46322SERGIO JOSE DE LIMA41M404910M00:30:3100:30:28
47250MURILO BARBOSA RODRIGUES28M162910M00:30:3200:30:27
483ALESSANDRO RICARDO TRISTANTE40M404911M00:30:3700:30:37
4950PETERSON MOURA38M303912M00:30:4600:30:36
50215LUIZ FERNANDO TANO26M162911M00:30:4800:30:43
51129DIEGO NOGUEIRA COELHO29M162912M00:30:5700:30:50
52239MAURICIO DE OLIVEIRA55M50997M00:31:0500:30:56
53160GUSTAVO HENRIQUE DE SOUSA SANTANNA30M303913M00:31:2000:31:14
5437LU?S ANT?NIO RODRIGUES58M50998MLIV CENTRO DE TREINAMENTO00:31:2100:31:08
55276ROBSON AUGUSTO COTTARELLI46M404912M00:31:2300:31:18
56277RODRIGO PIRES RISTER40M404913M00:31:2500:31:21
5776ALEXANDRE QUESSA41M404914MKM RUNNER00:31:4700:31:31
58269RICARDO ZAMPIERI CORREA35M303914MKM RUNNER00:31:4800:31:34
59154GENIVALDO DA SILVA PEREIRA32M303915M00:32:1500:31:44
60130DOUGLAS CAMATA DE ARAUJO29M162913MPANGAR?S RUNNING ANDRADINA00:32:1800:32:08
61271RINALDO TAKAHASHI45M404915MKM RUNNER / O200:32:2100:32:15
6227ISAIAS DE ALMEIDA45M404916M00:32:3500:32:24
63230MARCOS ANTONIO DE CARVALHO46M404917M00:32:4100:32:24
64206LUCAS FACHINI35M303916MTALENTO00:32:5400:32:27
65216LUIZ GERALDO TEIXEIRA44M404918M00:32:5400:32:39
66166HENRIQUE CASTILHO35M303917M00:32:5800:32:49
67295THIAGO TORRES CANOSSA28M162914M00:33:0000:32:44
68181JOEL MARCELO BECKER34M303918M00:33:0100:32:48
6995ARILDO FERNANDO VIEIRA48M404919MKM RUNNER00:33:0200:32:53
7024GUILHERME FELICIO DE BIAGGI22M162915M00:33:1400:33:10
71237MARIO PERES FRANZOI47M404920M00:33:3500:33:25
72212LU?S CARLOS VERZA AMARANTE22M162916M00:33:4500:33:14
7389ANTENOR JOS? GERALDI60M50999MSUPERANDO00:33:4700:33:34
7453RAFAEL SCARAMELLI COCATO31M303919M00:33:5100:33:12
75165HEITOR DORNELLAS DE OLIVEIRA24M162917MKM RUNNER00:33:5800:33:51
76164GUSTAVO SANDER LARIOS22M162918M00:34:0300:33:32
77308WAGNER SANNOMIYA55M509910MAVULSO00:34:2300:33:50
7810ANDR? LUIZ MIYAHARA TAKAHASHI28M162919M00:34:4400:34:05
79183JOSAFA NEVES DOS SANTOS74M509911M00:35:0000:34:54
8058ROBERTO GAMEIRO48M404921M00:35:0100:34:31
81213LUIZ CARLOS LE?O DE SOUZA63M509912MCAMARGO RUNNERS 00:35:0900:35:06
82251MURILO PAULITSCH HEULE DE SOUSA31M303920M00:35:1700:34:30
8378ALMIR JONAS DE POLI55M509913MKM RUNNER00:35:1900:35:07
84131DOUGLAS FERNANDO S. OLIVEIRA27M162920M00:35:3600:35:22
85319WINNITU TOZADORE33M303921M00:35:4400:35:17
86210LUCIANO AMORIN PEREIRA41M404922MAMIGOS DE CORRIDA00:35:5200:35:34
87155GERSON PAULINO DE MELO JUNIOR44M404923M00:35:5600:35:45
88178JEFERSON DA SILVA PEREIRA28M162921M00:36:0000:35:36
89261RAFAEL RODRIGUES FREIRE33M303922MKM RUNNER00:36:1400:35:57
90321LUIS FERNANDO FERRARI36M303923M00:36:2000:35:51
91211LUIGGI SARDAGNA37M303924M00:36:2200:35:54
92310WILSON GARDENAL J?NIOR52M509914MSUPERANDO00:36:3900:36:27
93240MAUR?CIO ZUANAZE39M303925M00:36:4900:36:15
94159GUILHERME MENDES DE CARVALHO44M404924M00:36:5900:36:51
95220MANUEL FRANCISCO TERRA FERNANDES34M303926M00:37:0000:36:46
96112CIANDRUS PEREIRA CARLI31M303927M00:37:0300:36:46
97191JULIANO LODDI DE SOUZA43M404925MLIFE ATIVIDADES F?SICAS00:37:1400:36:52
98296TIAGO PAZIAN SIMOES RAINHO36M303928MLIFE ATIVIDADES F?SICAS00:37:1500:36:52
99143FABR?CIO C?SAR DA SILVA FARINACI24M162922MKM RUNNER00:37:3800:37:30
100281SAMIR HENRIQUE DIB 33M303929M00:37:4500:37:10
101267RICARDO FERNANDO DE ALMEIDA27M162923M00:37:4800:37:24
102232MARCUS 45M404926MLIFE ATIVIDADES FISICAS00:37:5000:37:30
103117CLAUDIO FERNANDO OSTINI53M509915M00:37:5300:37:22
10417CLEIDIEL APARECIDO ARAUJO LEMOS25M162924MPR?TESE RUNNER00:37:5500:37:18
105111CESAR LUIS CORREA45M404927MP? DURO00:37:5600:37:31
106177JEAN LUCAS FAUSTINO SCANFELA 23M162925M00:37:5800:37:58
107241MAURO SERGIO CORREA44M404928M00:38:0500:37:32
108305VITOR RODRIGUES TRAVAIN39M303930M00:38:3000:37:54
109313JOSE DOS SANTOS63M509916M00:38:3600:38:36
110147FL?VIO MELO43M404929M RICCOBONI SYSTEM00:38:4400:38:16
111207LUCAS NOGUEIRA SILVA34M303931M00:38:4900:38:23
11277ALEXANDRE SAFATLE REZEK47M404930MSUPERANDO00:39:0200:38:50
11380ALTAIR DE SOUZA SANCHEZ40M404931MLIFE ATIVIDADES FISICAS00:39:0200:38:43
11432JOS? EDUARDO LIMA FRADE GOMES39M303932M00:39:0400:38:52
115162GUSTAVO PANZARINI BARIONI28M162926M00:39:5500:39:24
116285SERGIO ALEXANDRE DE JESUS RODRIGUES29M162927M00:39:5900:39:22
117153GALBER HENRIQUE PEREIRA RODRIGUES37M303933MSUPERANDO00:41:0000:40:36
11854REINALDO INACIO MENDES45M404932M00:41:0600:40:47
119134EDVALDO MOREIRA DA SILVA45M404933M00:41:0900:40:39
120264RENATO EUCLIDES MARTINELLI37M303934MASSESSORIA RICOBONI SYSTEM RUNNER00:41:0900:40:39
12196BERNARDINO TOMAZ DE ARAUJO NETO41M404934MBR INFORM?TICA00:41:3200:41:20
122163GUSTAVO ROLEDO22M162928M00:41:3800:41:21
123151FRANCS RODRIGUES35M303935MAMIGOS DE CORRIDA00:41:4100:41:21
124229MARCOS ALBERTO ORTOLAN47M404935MVIIVA ASSESSORIA ESPORTIVA00:41:5100:41:31
125217LUIZ HENRIQUE CARVALHO DE FREITAS28M162929M00:42:5700:42:27
126268RICARDO HENRIQUE ROCHA37M303936MINFRACOM00:43:3600:43:04
12735LUCAS JORGE LACERDA 24M162930M00:43:4400:43:21
128170IGOR MASSAO FERREIRA TAKIY22M162931MKM RUNNER00:45:3500:45:10
129150FRANCISCO ANTONIO DE SOUSA45M404936MCAMARGO RUNNERS00:46:1900:46:05
130101CAIO HENRIQUE DE MORAES CINTRA23M162932MKM RUNNER00:47:4500:47:06
131126DANTE GHIRARDELLO23M162933M00:49:4600:49:14
132214LUIZ CL?UDIO DA SILVA50M509917M00:50:3100:50:15
133184JOSE CARLOS DISPOSTI54M509918M00:53:0100:52:20
13425HAMILTON PEREIRA CORREIA39M303937M00:53:0200:52:26
135100CAIO CESAR FERNANDES DISPOSTI23M162934M00:53:0200:52:19
136242MAURO SERGIO OSSUNE53M509919M00:53:2800:52:50
137175JAIME LOLIS CORR?A58M509920MKM RUNNER00:55:3700:54:54
138274ROBERTO MASSAO TAKIY51M509921MKM RUNNER00:55:4300:55:18

UNESP Feminino


Coloc.NumeroNomeId.Fx.Et.Cl.Fx.Sx.C.EquipeTempo
167THAIS GENESINI22F1629-FCU00:31:11
27ANA LAURA ESTEVES DOS SANTOS31F3039-FCULOJA ALGAZARRA MODA INFANTIL00:32:23
366TATIANA NUNES BARRETO30F3039-FCU00:37:39
439MARIANA DA CRUZ MENEZES 25F1629-FCU00:38:11
529JANA?NA ZAVITOSKI DA SILVA35F3039-FCUKM RUNNER00:39:46

UNESP Masculino


Coloc.NumeroNomeId.Fx.Et.Cl.Fx.Sx.C.EquipeTempo
14ALLAN OLIVEIRA DA SILVA20M1629-MCUKM RUNNER00:28:16
231JO?O RAFAEL AMADEU27M1629-MCU00:29:09
32ALDI?RIS ALVES PESQUEIRA34M3039-MCU00:29:27
455RENAN DAL FABBRO24M1629-MCU00:29:46
546N?BIO SAITO41M4049-MCU00:29:48

 

Para dúvidas, sugestões ou reclamações entre em  contato conosco.

Siga-nos no Facebook: ChronoMAX Brasil… Curta nossa página!!! :)

Matriz Curitiba
Rua Cel. José Leal Fontoura, 141, Xaxim, Curitiba – PR

E-mail: chronomax@chronomax.com.br

Telefones:
41 3779.0706 / 41 9151.0706 (Vivo)

Atendimento Whatsapp
41 9151.0706